Regional Weather Roundup
Issued by NWS

Home | Current Version | Previous Version | Graphics & Text | Print | Product List | Glossary On
Versions: 1 2 3 4 5 6 7 8 9 10 11 12 13 14 15 16 17 18 19 20 21 22 23 24 25 26 27 28 29 30 31 32 33 34 35 36 37 38 39 40 41 42 43 44 45 46 47 48 49 50
000
ASUS43 KLMK 181710
RWRKY
KENTUCKY REGIONAL WEATHER ROUNDUP
NATIONAL WEATHER SERVICE LOUISVILLE KY
1200 PM EST SUN FEB 18 2018

NOTE "FAIR" INDICATES FEW OR NO CLOUDS BELOW 12,000 FEET
WITH NO SIGNIFICANT WEATHER AND/OR OBSTRUCTIONS TO VISIBILITY.

KYZ001>023-026-027-061>063-070>075-181800-
WESTERN AND SOUTH CENTRAL KENTUCKY

CITY           SKY/WX    TMP DP  RH WIND       PRES   REMARKS
PADUCAH        FAIR      46  35  65 SE8       30.26F
HENDERSON      FAIR      46  34  62 SE10      30.30F
OWENSBORO      FAIR      47  35  63 SE10      30.31F
HOPKINSVILLE   FAIR      46  33  61 SE12      30.28F
BOWLING GREEN  FAIR      47  35  63 E8        30.33F
GLASGOW        FAIR      47  35  63 SE7       30.33F
$$

KYZ024-025-028>034-038-045-046-053-181800-
NORTH CENTRAL KENTUCKY

CITY           SKY/WX    TMP DP  RH WIND       PRES   REMARKS
LOUISVILLE/SDF FAIR      45  33  63 E6        30.33F
LOUISVILLE/LOU FAIR      44  34  67 E7        30.34F
FORT KNOX      FAIR      44  35  70 E7        30.32F
$$

KYZ035>037-039>044-047>052-055>060-089>105-181800-
NORTHEAST KENTUCKY

CITY           SKY/WX    TMP DP  RH WIND       PRES   REMARKS
LEXINGTON      FAIR      45  35  68 SE8       30.34F
COVINGTON      FAIR      39  32  76 E7        30.35F WCI  34
FRANKFORT      FAIR      44  33  65 VRB7      30.34F
$$

KYZ054-064>069-076>088-106>120-181800-
SOUTHEAST KENTUCKY

CITY           SKY/WX    TMP DP  RH WIND       PRES   REMARKS
JACKSON        FAIR      46  34  62 VRB3      30.34F
LONDON         FAIR      44  34  67 SE6       30.33F
SOMERSET       FAIR      45  34  65 E8        30.35F
MIDDLESBORO    FAIR      49  33  54 CALM      30.33F
MONTICELLO     NOT AVBL
$$





USA.gov is the U.S. government's official web portal to all federal, state and local government web resources and services.